Montague, CA

12:28 AM PDT on September 19, 2019 (GMT -0700)
Siskiyou County

Weather History for KSIY - August, 2019

Change the Weather History Date:

Thursday, August 22, 2019

  Actual Average Record
Temperature  
Mean Temperature 71 °F 69 °F  
Max Temperature 88 °F 88 °F 100 °F (1988)
Min Temperature 54 °F 50 °F 38 °F (1992)
Degree Days  
Heating Degree Days 0 0  
Month to date heating degree days 5 0  
Since 1 June heating degree days 56 97  
Since 1 July heating degree days 5 4  
Cooling Degree Days 6 5  
Month to date cooling degree days 183 154  
Year to date cooling degree days 567 467  
Since 1 June cooling degree days 565 454  
Growing Degree Days 20 (Base 50)    
Moisture  
Dew Point 50 °F    
Average Humidity 54    
Maximum Humidity 93    
Minimum Humidity 23    
Precipitation  
Precipitation 0.00 in 0.00 in 1.13 in (1978)
Month to date precipitation 0.42 0.30  
Year to date precipitation 8.79 10.96  
Sea Level Pressure  
Sea Level Pressure 29.95 in    
Wind  
Wind Speed 9 mph (North)    
Max Wind Speed 18 mph    
Max Gust Speed 23 mph    
Visibility 10 miles    
Events Rain    
T = Trace of Precipitation, MM = Missing Value Source: NWS Daily Summary

Daily Weather History Graph

Daily Weather History Graph

Search for Another Location

Airport or City:

Astronomy

Aug. 22, 2019 Rise Set
Actual Time 6:25 AM PDT 7:59 PM PDT
Civil Twilight 5:55 AM PDT 8:28 PM PDT
Nautical Twilight 5:20 AM PDT 9:04 PM PDT
Astronomical Twilight 4:42 AM PDT 9:41 PM PDT
Moon 11:46 PM PDT (8/22) 1:12 PM PDT (8/22)
Length of Visible Light 14h 32m
Length of Day
13h 34m
Waning Gibbous, 58% of the Moon is Illuminated
Aug 22
Waning Gibbous
Aug 23
Last Quarter
Aug 30
New
Sep 5
First Quarter
Sep 13
Full

Hourly Weather History & Observations

Time (PDT) Temp. Dew Point Humidity Pressure Visibility Wind Dir Wind Speed Gust Speed Precip Events Conditions
12:53 AM 64.0 °F 57.0 °F 78% 30.01 in 10.0 mi NNW 5.8 mph - N/A   Overcast
1:53 AM 64.0 °F 55.9 °F 75% 30.00 in 10.0 mi NNW 8.1 mph - N/A   Mostly Cloudy
2:53 AM 60.1 °F 55.0 °F 83% 29.99 in 10.0 mi North 9.2 mph - N/A   Overcast
3:53 AM 61.0 °F 55.0 °F 81% 29.98 in 10.0 mi North 9.2 mph - N/A   Clear
4:53 AM 59.0 °F 54.0 °F 83% 29.99 in 10.0 mi North 8.1 mph - N/A   Clear
5:53 AM 55.9 °F 53.1 °F 90% 30.01 in 10.0 mi North 4.6 mph - N/A   Scattered Clouds
6:53 AM 55.9 °F 52.0 °F 87% 30.03 in 10.0 mi NNE 8.1 mph - N/A   Clear
7:53 AM 61.0 °F 54.0 °F 78% 30.04 in 10.0 mi North 10.4 mph - N/A   Clear
8:53 AM 64.9 °F 53.1 °F 65% 30.03 in 10.0 mi NNE 10.4 mph - N/A   Clear
9:53 AM 69.1 °F 51.1 °F 53% 30.01 in 10.0 mi North 8.1 mph - N/A   Clear
10:53 AM 71.1 °F 51.1 °F 49% 30.00 in 10.0 mi North 6.9 mph - N/A   Clear
11:53 AM 73.9 °F 50.0 °F 43% 29.99 in 10.0 mi Variable 5.8 mph - N/A   Clear
12:53 PM 78.1 °F 48.9 °F 36% 29.97 in 10.0 mi Variable 5.8 mph - N/A   Clear
1:53 PM 80.1 °F 43.0 °F 27% 29.94 in 10.0 mi Variable 3.5 mph - N/A   Clear
2:53 PM 84.0 °F 42.1 °F 23% 29.91 in 10.0 mi NW 5.8 mph - N/A   Clear
3:53 PM 84.9 °F 43.0 °F 23% 29.88 in 10.0 mi Variable 4.6 mph - 0.00 in Rain Light Rain
4:53 PM 86.0 °F 41.0 °F 20% 29.87 in 10.0 mi NW 8.1 mph 18.4 mph 0.00 in   Clear
5:53 PM 84.9 °F 48.0 °F 28% 29.87 in 10.0 mi North 12.7 mph - N/A   Clear
6:53 PM 81.0 °F 48.0 °F 31% 29.88 in 10.0 mi NNW 12.7 mph - N/A   Clear
7:53 PM 77.0 °F 48.9 °F 37% 29.88 in 10.0 mi NNW 15.0 mph - N/A   Clear
8:53 PM 73.0 °F 48.9 °F 42% 29.90 in 10.0 mi North 13.8 mph - N/A   Clear
9:53 PM 70.0 °F 48.9 °F 47% 29.91 in 10.0 mi North 11.5 mph - N/A   Clear
10:53 PM 69.1 °F 51.1 °F 53% 29.91 in 10.0 mi North 15.0 mph - N/A   Clear
11:53 PM 68.0 °F 52.0 °F 56% 29.91 in 10.0 mi North 15.0 mph - N/A   Clear